Reno (UNR), Valley Road, Nevada Weather observations

Data are for observation ending at time listed.
 Day   Time    Ave.   Ave.  Ave.  Vector   Max.    Total    Solar   Rl      Baro.   Ave.  
  of    of     Air    Rel.  Wind   Wind    Wind   Precip.   Rad.    in      Pres.   Soil  
Year   Day     Temp.  Hum.  Speed  Dir.    Gust                                     Temp. 
2026   (PST)    F      %     mph   deg.    mph      in.     W/m2    W/m2     mb.     F   
-----------------------------------------------------------------------------------------
 127   12:00   80.3    20   11.4   234     20.8     0.00    1037     383    864.3   67.9
 127   12:10   79.5    20    9.6   260     18.9     0.00    1038     382    864.3   68.4
 127   12:20   80.6    19    9.4   240     15.9     0.00    1035     384    864.4   68.8
 127   12:30   81.3    19   10.2   225     16.6     0.00    1031     384    864.2   69.3
 127   12:40   81.7    18    7.7   241     17.5     0.00    1027     383    864.2   69.7
 127   12:50   80.6    17    9.6   272     15.8     0.00    1021     381    864.1   70.1
 127   13:00   80.9    18    8.3   259     18.1     0.00    1011     383    864.1   70.5
 127   13:10   81.0    18    7.9   248     16.2     0.00    1000     383    863.9   70.9
 127   13:20   81.7    16   10.4   266     21.2     0.00     989     381    863.9   71.2
 127   13:30   80.5    17    9.2   279     15.5     0.00     977     380    863.9   71.5
 127   13:40   80.3    17    9.4   296     18.5     0.00     959     381    863.7   71.7
 127   13:50   80.5    17    9.0   273     17.1     0.00     939     381    863.7   71.9
 127   14:00   81.1    18   10.7   270     21.2     0.00     924     382    863.6   72.1
 127   14:10   80.2    18    9.2   270     22.6     0.00     901     381    863.6   72.3
 127   14:20   80.7    18   10.4   269     18.0     0.00     882     384    863.5   72.5
 127   14:30   80.0    18   10.9   275     20.5     0.00     859     380    863.4   72.6
 127   14:40   80.2    18   10.8   275     20.5     0.00     830     380    863.2   72.8
 127   14:50   79.8    17   10.8   269     19.5     0.00     808     380    863.3   73.0
 127   15:00   79.6    17   10.1   282     18.7     0.00     776     379    863.2   73.2
 127   15:10   80.2    18   10.8   271     20.3     0.00     750     379    863.2   73.4
 127   15:20   80.0    17    8.7   280     17.6     0.00     718     377    863.2   73.5
 127   15:30   79.9    18   11.3   266     21.4     0.00     690     378    863.1   73.7
 127   15:40   80.2    19   10.0   253     16.1     0.00     656     375    863.1   73.9
 127   15:50   81.1    19    9.8   239     17.7     0.00     624     379    863.0   74.0
 127   16:00   81.3    19    8.0   249     14.7     0.00     591     379    863.0   74.2
 127   16:10   81.0    19   11.0   235     19.8     0.00     557     377    863.0   74.3
 127   16:20   79.8    21   10.8   244     19.3     0.00     521     372    863.1   74.4
 127   16:30   79.6    22   10.1   243     18.4     0.00     487     372    863.1   74.5
 127   16:40   79.4    21    9.4   243     16.6     0.00     456     374    863.1   74.6
 127   16:50   79.3    22    9.7   254     19.3     0.00     421     373    863.2   74.6
 127   17:00   78.3    22    9.5   254     19.0     0.00     385     372    863.3   74.7
 127   17:10   78.0    23    8.8   273     17.8     0.00     348     371    863.4   74.7
 127   17:20   76.9    24   10.7   268     20.8     0.00     313     368    863.4   74.8
 127   17:30   77.0    25    9.5   244     18.4     0.00     264     367    863.4   74.8
 127   17:40   76.5    26   10.1   250     17.8     0.00     230     367    863.4   74.7
 127   17:50   75.5    27    8.8   257     17.7     0.00     201     365    863.6   74.7
 127   18:00   75.4    28    8.3   256     15.3     0.00     167     364    863.6   74.7
 127   18:10   74.5    29    9.9   245     19.6     0.00     124     360    863.8   74.6
 127   18:20   73.7    29    7.9   260     14.3     0.00     109     355    863.8   74.5
 127   18:30   73.0    30    6.0   270     13.1     0.00      71     353    864.0   74.4
 127   18:40   71.6    32    7.3   269     15.3     0.00      21     347    864.0   74.3
 127   18:50   70.5    33    7.7   257     15.5     0.00      14     341    864.1   74.2
 127   19:00   69.9    33    7.0   262     14.8     0.00       8     338    864.2   74.0
 127   19:10   69.3    33    7.2   262     12.5     0.00       4     336    864.2   73.8
 127   19:20   68.8    34    5.8   268     12.0     0.00       1     336    864.4   73.7
 127   19:30   68.2    35    6.7   267     12.6     0.00       0     337    864.4   73.5
 127   19:40   67.7    36    7.4   269     13.6     0.00       0     335    864.5   73.3
 127   19:50   67.3    37    9.1   266     19.5     0.00       0     334    864.5   73.1
 127   20:00   66.8    39    8.7   263     15.7     0.00       0     333    864.7   73.0
 127   20:10   66.5    40    8.7   265     15.9     0.00       0     333    864.8   72.8
 127   20:20   66.1    38    8.7   263     16.0     0.00       0     331    865.0   72.6
 127   20:30   66.2    36    9.9   269     17.5     0.00       0     331    865.1   72.4
 127   20:40   66.0    35   10.0   266     16.8     0.00       0     331    865.2   72.2
 127   20:50   65.9    34   10.4   265     20.3     0.00       0     330    865.3   72.0
 127   21:00   65.5    34    8.4   268     16.4     0.00       0     329    865.3   71.8
 127   21:10   65.4    33    7.5   262     16.9     0.00       0     327    865.3   71.6
 127   21:20   65.2    33    7.6   261     15.0     0.00       0     326    865.3   71.4
 127   21:30   65.0    32    7.7   267     13.8     0.00       0     326    865.4   71.2
 127   21:40   64.8    32    8.7   275     19.2     0.00       0     325    865.4   71.0
 127   21:50   64.7    32    7.9   276     15.1     0.00       0     325    865.3   70.9
 127   22:00   64.6    30    6.8   276     15.8     0.00       0     324    865.4   70.7
 127   22:10   64.7    28    6.2   282     11.0     0.00       0     324    865.4   70.5
 127   22:20   64.6    27    6.7   282     13.7     0.00       0     324    865.5   70.4
 127   22:30   64.6    26    5.3   283     11.6     0.00       0     323    865.5   70.2
 127   22:40   64.4    26    6.5   288     11.5     0.00       0     322    865.5   70.0
 127   22:50   64.4    25    6.9   283     12.4     0.00       0     322    865.4   69.9
 127   23:00   63.7    26    3.6   245      8.3     0.00       0     319    865.4   69.7
 127   23:10   62.9    27    2.4   186      4.5     0.00       0     317    865.5   69.5
 127   23:20   61.4    30    2.4   181      3.7     0.00       0     317    865.5   69.4
 127   23:30   59.7    32    1.3   313      2.2     0.00       0     313    865.6   69.2
 127   23:40   57.8    36    1.2   342      2.3     0.00       0     312    865.6   69.0
 127   23:50   56.2    39    2.0    86      4.3     0.00       0     307    865.5   68.9
 128    0:00   56.4    39    3.0    56      7.0     0.00       0     307    865.6   68.7
 128    0:10   55.9    41    1.9   288      3.7     0.00       0     306    865.5   68.5
 128    0:20   55.1    43    2.0   274      3.8     0.00       0     304    865.5   68.4
 128    0:30   54.2    44    0.6   355      1.7     0.00       0     300    865.4   68.2
 128    0:40   55.4    34    4.2   229      7.6     0.00       0     299    865.4   68.0
 128    0:50   57.9    29    3.2   236      6.0     0.00       0     304    865.3   67.8
 128    1:00   56.6    34    2.5     9      3.7     0.00       0     302    865.4   67.7
 128    1:10   54.5    38    1.9   354      3.3     0.00       0     295    865.3   67.5
 128    1:20   53.0    41    1.2   306      2.4     0.00       0     296    865.4   67.3
 128    1:30   52.9    41    1.8   258      2.7     0.00       0     294    865.5   67.1
 128    1:40   52.8    40    3.0   276      3.9     0.00       0     294    865.4   67.0
 128    1:50   53.0    42    3.5   285      4.9     0.00       0     294    865.5   66.8
 128    2:00   52.8    46    3.4   269      5.0     0.00       0     293    865.4   66.6
 128    2:10   52.3    50    1.3   340      3.5     0.00       0     293    865.5   66.4
 128    2:20   50.7    53    1.3    41      1.7     0.00       0     288    865.5   66.3
 128    2:30   49.4    55    1.3   314      2.2     0.00       0     284    865.6   66.1
 128    2:40   48.5    58    0.8   297      1.6     0.00       0     286    865.6   65.9
 128    2:50   47.6    63    2.1   349      4.6     0.00       0     285    865.6   65.8
 128    3:00   48.0    62    2.5   334      4.1     0.00       0     282    865.6   65.6
 128    3:10   47.2    64    1.5   275      3.1     0.00       0     284    865.7   65.4
 128    3:20   47.3    64    2.1   303      4.3     0.00       0     284    865.8   65.3
 128    3:30   46.5    66    2.5   319      3.8     0.00       0     284    865.8   65.1
 128    3:40   45.6    67    2.4   320      5.7     0.00       0     283    865.8   64.9
 128    3:50   45.8    64    1.7   330      3.3     0.00       0     282    865.8   64.8
 128    4:00   45.9    65    1.6   332      3.3     0.00       0     280    866.0   64.6
 128    4:10   45.3    66    1.3   200      2.6     0.00       0     279    865.8   64.4
 128    4:20   45.2    66    2.5   323      3.6     0.00       0     280    865.9   64.3
 128    4:30   44.5    68    1.6   330      2.8     0.00       0     278    865.9   64.1
 128    4:40   44.1    68    1.9   313      3.5     0.00       1     276    866.1   64.0
 128    4:50   44.0    68    1.5   220      3.0     0.00       3     276    866.0   63.8
 128    5:00   43.7    69    1.9   313      3.0     0.00       8     276    866.1   63.6
 128    5:10   43.5    69    0.7   323      2.7     0.00      18     274    866.2   63.5
 128    5:20   45.3    65    1.4   324      2.7     0.00      39     273    866.2   63.3
 128    5:30   47.4    61    1.2   311      2.9     0.00      67     276    866.3   63.2
 128    5:40   49.0    55    2.4   289      4.0     0.00     101     278    866.4   63.0
 128    5:50   51.0    52    2.9   247      3.8     0.00     139     281    866.5   62.9
 128    6:00   53.4    48    1.5    21      2.7     0.00     166     283    866.5   62.7
 128    6:10   55.3    44    0.2   341      1.1     0.00     196     287    866.7   62.6
 128    6:20   58.4    38    0.8    83      2.3     0.00     229     290    866.8   62.5
 128    6:30   58.0    38    1.3   343      2.4     0.00     269     295    866.9   62.4
 128    6:40   58.3    38    1.7    34      2.8     0.00     306     297    866.8   62.3
 128    6:50   57.9    38    2.4    44      3.7     0.00     341     299    866.8   62.3
 128    7:00   58.6    38    1.8    44      3.1     0.00     377     304    866.8   62.2
 128    7:10   60.4    36    1.4    59      3.1     0.00     412     305    866.9   62.2
 128    7:20   62.5    34    1.5   129      3.4     0.00     448     310    866.9   62.3
 128    7:30   66.0    31    2.2   161      4.5     0.00     478     314    866.9   62.3
 128    7:40   66.0    30    2.3   106      4.6     0.00     515     319    866.8   62.4
 128    7:50   64.5    31    2.7    95      5.6     0.00     552     319    866.7   62.5
 128    8:00   65.5    30    3.1   113      6.0     0.00     587     322    866.7   62.6
 128    8:10   67.6    27    2.4   135      4.9     0.00     622     324    866.7   62.7
 128    8:20   68.5    27    3.4   122      5.9     0.00     648     327    866.6   62.9
 128    8:30   68.7    27    3.2   155      6.4     0.00     686     329    866.5   63.0
 128    8:40   68.4    25    3.4   220      6.5     0.00     719     330    866.5   63.3
 128    8:50   69.7    24    2.9   168      5.4     0.00     749     333    866.4   63.5
 128    9:00   71.2    23    2.5   129      6.0     0.00     778     337    866.4   63.7
 128    9:10   71.1    22    2.9    97      8.0     0.00     807     339    866.2   63.9
 128    9:20   70.3    22    2.4     5      5.4     0.00     831     343    866.3   64.0
 128    9:30   72.6    19    3.3   245      6.9     0.00     860     345    866.2   64.1
 128    9:40   72.7    21    2.6   141      7.5     0.00     883     347    866.2   64.2
 128    9:50   74.4    19    3.4   196      7.2     0.00     906     348    866.1   64.3
 128   10:00   74.9    18    2.9   145      7.3     0.00     931     347    866.1   64.3
 128   10:10   75.5    17    3.0   181      8.4     0.00     952     348    866.0   64.4
 128   10:20   77.5    16    4.1   168     11.2     0.00     996     356    865.9   64.4
 128   10:30   78.2    16    4.3   154     10.7     0.00    1030     361    865.8   64.6
 128   10:40   77.9    15    3.8   181      9.2     0.00    1109     369    865.7   64.7
 128   10:50   77.0    15    3.8    84     12.0     0.00     899     376    865.6   65.0
 128   11:00   76.9    14    3.2   283      9.7     0.00    1074     376    865.4   65.4
 128   11:10   79.6    13    3.1   242     11.9     0.00    1122     380    865.3   65.7
 128   11:20   77.8    14    8.2   232     14.8     0.00     642     375    865.1   66.2
 128   11:30   78.1    14    4.8   259      9.2     0.00    1149     371    865.2   66.6
 128   11:40   76.4    14    5.4   341     10.3     0.00    1052     370    865.1   67.1
 128   11:50   77.2    14    3.8    32      7.5     0.00    1056     368    865.0   67.6

Return to Reno (UNR), Nevada graphs page.


Western Regional Climate Center,wrcc@dri.edu